HORS 4 (RS82S)

Last updated on Sun Aug 09 2026 00:03:16 GMT+0000 (Coordinated Universal Time)

1 61754U 24199V 26220.63791334 .00041371 00000+0 42194-3 0 9994 2 61754 97.2829 99.2369 0007279 88.2288 271.9806 15.64957440145830
UTC large
Height (km)
Speed (km/s)
/
Latitude / Longitude
Inclination (degrees)
Orbital Period (minutes)
Azimuth
Elevation
Range (km)
Doppler Factor

Next 0 passes for location: London (51.5072 / 0.1276)

No passes found over London.
HORS 4 (RS82S)